Location: ??
(34.9170°N, 135.5016°E)
Time: 09:38:43
(UTC+00:00)

X-37B - Pass Details

Date: 22 January 2021
Orbit: 383 x 391 km, 45.0° (Epoch: 27 February)

Event Time Altitude Azimuth Distance (km) Brightness Sun altitude
Rises 09:29:01 0° 279° (W) 2,269 5.8 -14.9°
Reaches altitude 10° 09:31:31 10° 299° (WNW) 1,417 4.1 -15.4°
Maximum altitude 09:33:50 18° 345° (NNW) 1,030 2.7 -15.9°
Enters shadow 09:34:50 16° 10° (N) 1,116 2.7 -16.1°
